IZ2MHJ-3 Weather Reports


time (UTC)temp
C
wind
direction
speed
KPH
gust
KPH
rain 1hr
cm
rain 24hr
cm
rain mn
cm
humidity
%
barometer
mb
20260507192508 19 0.0 0.0 0.00 0.00 0.00 56 1014.9
20260507190508 20 0.0 0.0 0.00 0.00 0.00 53 1014.5
20260507184508 20 0.0 0.0 0.00 0.00 0.00 53 1014.4
20260507182507 19 0.0 0.0 0.00 0.00 0.00 55 1014.2
20260507180507 21 0.0 0.0 0.00 0.00 0.00 52 1013.9
20260507174507 22 0.0 0.0 0.00 0.00 0.00 49 1013.6
20260507172507 22 0.0 0.0 0.00 0.00 0.00 44 1013.4
20260507170506 24 0.0 0.0 0.00 0.00 0.00 40 1013.2
20260507164506 23 0.0 0.0 0.00 0.00 0.00 43 1013.1
20260507162506 25 0.0 0.0 0.00 0.00 0.00 41 1013.0
20260507160506 25 0.0 0.0 0.00 0.00 0.00 39 1012.9
20260507154505 25 0.0 0.0 0.00 0.00 0.00 37 1013.0
20260507152505 25 0.0 0.0 0.00 0.00 0.00 40 1013.0
20260507150504 24 0.0 0.0 0.00 0.00 0.00 40 1013.0
20260507144504 24 0.0 0.0 0.00 0.00 0.00 42 1013.2
20260507142504 25 0.0 0.0 0.00 0.00 0.00 38 1013.0
20260507140503 25 0.0 0.0 0.00 0.00 0.00 40 1013.2
20260507134503 25 0.0 0.0 0.00 0.00 0.00 40 1013.3
20260507132503 26 0.0 0.0 0.00 0.00 0.00 40 1013.4
20260507130503 26 0.0 0.0 0.00 0.00 0.00 39 1013.6
20260507124502 25 0.0 0.0 0.00 0.00 0.00 43 1013.7
20260507122502 23 0.0 0.0 0.00 0.00 0.00 44 1014.0
20260507120502 23 0.0 0.0 0.00 0.00 0.00 45 1014.2
20260507114501 22 0.0 0.0 0.00 0.00 0.00 49 1014.3
20260507112501 24 0.0 0.0 0.00 0.00 0.00 45 1014.3
20260507110501 23 0.0 0.0 0.00 0.00 0.00 48 1014.5
20260507104500 23 0.0 0.0 0.00 0.00 0.00 48 1014.8
20260507102500 21 0.0 0.0 0.00 0.00 0.00 49 1015.1
20260507100500 22 0.0 0.0 0.00 0.00 0.00 49 1015.0
20260507094459 21 0.0 0.0 0.00 0.00 0.00 49 1015.1
20260507092459 22 0.0 0.0 0.00 0.00 0.00 49 1015.1
20260507090459 20 0.0 0.0 0.00 0.00 0.00 55 1015.1
20260507084459 17 0.0 0.0 0.00 0.00 0.00 64 1015.3
20260507082458 18 0.0 0.0 0.00 0.00 0.00 62 1015.2
20260507080458 17 0.0 0.0 0.00 0.00 0.00 64 1015.1
20260507074458 17 0.0 0.0 0.00 0.00 0.00 68 1014.9
20260507072457 16 0.0 0.0 0.00 0.00 0.00 70 1015.0
20260507070457 16 0.0 0.0 0.00 0.00 0.00 72 1014.8
20260507064457 15 0.0 0.0 0.00 0.00 0.00 73 1014.7
20260507062457 13 0.0 0.0 0.00 0.00 0.00 81 1014.7
20260507060456 13 0.0 0.0 0.00 0.00 0.00 83 1014.7
20260507054456 13 0.0 0.0 0.00 0.00 0.00 82 1014.6
20260507052455 12 0.0 0.0 0.00 0.00 0.00 85 1014.5
20260507050455 12 0.0 0.0 0.00 0.00 0.00 85 1014.1
20260507044455 12 0.0 0.0 0.00 0.00 0.00 86 1013.9
20260507042454 11 0.0 0.0 0.00 0.00 0.00 87 1013.8
20260507040454 11 0.0 0.0 0.00 0.00 0.00 87 1013.6
20260507034454 11 0.0 0.0 0.00 0.00 0.00 88 1013.6
20260507032454 11 0.0 0.0 0.00 0.00 0.00 88 1013.5
20260507030454 11 0.0 0.0 0.00 0.00 0.00 88 1013.7
20260507024453 11 0.0 0.0 0.00 0.00 0.00 87 1013.6
20260507022453 12 0.0 0.0 0.00 0.00 0.00 87 1013.6
20260507020452 12 0.0 0.0 0.00 0.00 0.00 87 1013.6
20260507014452 12 0.0 0.0 0.00 0.00 0.00 87 1013.4
20260507012452 12 0.0 0.0 0.00 0.00 0.00 87 1013.2
20260507010451 12 0.0 0.0 0.00 0.00 0.00 86 1013.3
20260507004451 12 0.0 0.0 0.00 0.00 0.00 85 1013.2
20260507002451 12 0.0 0.0 0.00 0.00 0.00 84 1013.3
20260507000451 12 0.0 0.0 0.00 0.00 0.00 83 1013.3
20260506234450 12 0.0 0.0 0.00 0.00 0.00 84 1013.0
20260506232450 12 0.0 0.0 0.00 0.00 0.00 84 1012.8
20260506230450 12 0.0 0.0 0.00 0.00 0.00 84 1012.9
20260506224449 12 0.0 0.0 0.00 0.00 0.00 84 1012.9
20260506222449 12 0.0 0.0 0.00 0.00 0.00 83 1013.0
20260506220449 12 0.0 0.0 0.00 0.00 0.00 84 1012.8
20260506214449 12 0.0 0.0 0.00 0.00 0.00 83 1012.7
20260506212448 12 0.0 0.0 0.00 0.00 0.00 83 1012.8
20260506210448 12 0.0 0.0 0.00 0.00 0.00 84 1012.9
20260506204447 12 0.0 0.0 0.00 0.00 0.00 82 1012.7
20260506202447 12 0.0 0.0 0.00 0.00 0.00 81 1012.8
20260506200447 12 0.0 0.0 0.00 0.00 0.00 81 1012.5
20260506194447 13 0.0 0.0 0.00 0.00 0.00 84 1012.4